Flag for U.S.A. Weather past 2 weeks in Oxnard, California, U.S.A.

Now
70 °F

Sunny.


Feels Like: 76 °F
Forecast: 54 / 68 °F
Wind: 7 mph from West

Location: Oxnard Airport

Current Time: Dec 22, 2014 at 2:18:44 PM

Latest Report: Dec 22, 2014 at 1:51 PM


Visibility: 10 mi

Pressure: 29.96 "Hg

Humidity: 59%

Dew point: 55 °F

Location of OxnardLocation

Historic Weather in Oxnard — Graph

°F

Oxnard temperature yesterday

Maximum temperature yesterday: 67 °F (at 1:51 PM)
Minimum temperature yesterday: 52 °F (at 5:51 AM)
Average temperature yesterday: 59 °F

Past Weeks' High & Low Weather Summary

 TemperatureHumidityPressure
High73 °F (Dec 9, 10:51 AM)93% (Dec 9, 1:51 AM)30.24 "Hg (Dec 9, 1:51 AM)
Low48 °F (Dec 13, 5:51 AM)37% (Dec 9, 10:51 AM)29.75 "Hg (Dec 12, 12:51 AM)
Average58 °F72%30.05 "Hg
* Reported Dec 7 12:51 PM — Dec 22 12:51 PM, Oxnard, Weather by CustomWeather, © 2014

Note: Actual official high and low records may vary slightly from our data, if they occured in-between our weather recording intervals... More about our weather records

Advertising

Oxnard weather history for previous 24 hours

 ConditionsComfort  
Time TempWeatherWind HumidityBarometerVisibility
12:51 PM
Dec 22
73 °FSunny.8 mph46%29.97 "Hg10 mi
11:51 AM70 °FSunny.12 mph64%29.99 "Hg10 mi
10:51 AM71 °FSunny.5 mph61%30.03 "Hg8 mi
9:51 AM68 °FSunny.No wind51%30.05 "Hg10 mi
8:51 AM62 °FSunny.5 mph60%30.04 "Hg10 mi
7:51 AM54 °FSunny.5 mph77%30.04 "Hg10 mi
6:51 AM52 °FClear.No wind77%30.03 "Hg10 mi
5:51 AM52 °FClear.5 mph80%30.03 "Hg10 mi
4:51 AM55 °FClear.No wind72%30.02 "Hg10 mi
3:51 AM51 °FClear.6 mph83%30.01 "Hg10 mi
2:51 AM56 °FClear.No wind72%30.03 "Hg10 mi
1:51 AM54 °FClear.5 mph80%30.03 "Hg10 mi
12:51 AM54 °FClear.3 mph80%30.03 "Hg10 mi
11:51 PM
Dec 21
55 °FClear.5 mph80%30.03 "Hg10 mi
10:51 PM59 °FClear.3 mph72%30.05 "Hg10 mi
9:51 PM59 °FClear.No wind72%30.04 "Hg10 mi
8:51 PM60 °FClear.6 mph72%30.05 "Hg10 mi
7:51 PM59 °FClear.6 mph78%30.05 "Hg10 mi
6:51 PM61 °FClear.3 mph75%30.04 "Hg10 mi
5:51 PM62 °FClear.3 mph75%30.05 "Hg10 mi
4:51 PM64 °FClear.3 mph75%30.03 "Hg10 mi
3:51 PM64 °FSunny.3 mph78%30.03 "Hg9 mi
2:51 PM65 °FSunny.3 mph76%30.04 "Hg9 mi
Weather by CustomWeather, © 2014

See weather overviewHow to use our weather pages